TimeEST,TemperatureF,Dew PointF,Humidity,Sea Level PressureIn,VisibilityMPH,Wind Direction,Wind SpeedMPH,Gust SpeedMPH,PrecipitationIn,Events,Conditions,WindDirDegrees,DateUTC
12:56 AM,39.0,37.9,96,30.27,9.0,Calm,Calm,-,N/A,,Scattered Clouds,0,2012-12-04 05:56:00
1:56 AM,42.1,37.9,85,30.27,10.0,Calm,Calm,-,N/A,,Partly Cloudy,0,2012-12-04 06:56:00
2:56 AM,44.1,39.0,82,30.27,10.0,ESE,3.5,-,N/A,,Overcast,120,2012-12-04 07:56:00
3:56 AM,44.1,39.0,82,30.27,10.0,Calm,Calm,-,N/A,,Overcast,0,2012-12-04 08:56:00
4:56 AM,45.0,39.9,82,30.27,10.0,Calm,Calm,-,N/A,,Overcast,0,2012-12-04 09:56:00
5:56 AM,45.0,41.0,86,30.27,10.0,ESE,3.5,-,N/A,,Overcast,110,2012-12-04 10:56:00
6:35 AM,44.6,42.8,93,30.26,2.5,East,3.5,-,0.04,Rain,Rain,100,2012-12-04 11:35:00
6:38 AM,44.6,42.8,93,30.26,1.5,East,4.6,-,0.04,Rain,Light Rain,100,2012-12-04 11:38:00
6:56 AM,44.1,42.1,93,30.28,6.0,ESE,5.8,-,0.05,Rain,Light Rain,110,2012-12-04 11:56:00
7:35 AM,44.6,42.8,93,30.26,1.2,ESE,4.6,-,0.00,Rain,Light Rain,120,2012-12-04 12:35:00
7:56 AM,44.1,42.1,93,30.28,1.2,SE,4.6,-,0.00,Rain,Light Rain,130,2012-12-04 12:56:00
8:42 AM,44.6,42.8,93,30.26,0.5,ESE,5.8,-,0.03,Fog,Light Drizzle,110,2012-12-04 13:42:00
8:56 AM,45.0,44.1,97,30.27,0.5,ESE,4.6,-,0.04,Fog,Light Drizzle,120,2012-12-04 13:56:00
9:06 AM,46.4,44.6,93,30.26,0.2,Variable,4.6,-,0.00,,Light Drizzle,0,2012-12-04 14:06:00
9:56 AM,46.9,46.0,97,30.28,0.1,Calm,Calm,-,0.00,Fog-Rain,Light Rain,0,2012-12-04 14:56:00
10:56 AM,48.9,48.0,97,30.26,0.1,ESE,3.5,-,0.00,Fog,Light Drizzle,120,2012-12-04 15:56:00
11:56 AM,52.0,51.1,97,30.22,0.5,SE,5.8,-,0.00,Fog,Light Drizzle,140,2012-12-04 16:56:00
12:47 PM,53.6,51.8,94,30.19,1.5,SSE,4.6,-,0.00,,Mostly Cloudy,150,2012-12-04 17:47:00
12:56 PM,54.0,52.0,93,30.19,1.5,SSE,4.6,-,0.00,,Scattered Clouds,160,2012-12-04 17:56:00
1:16 PM,55.4,51.8,88,30.17,4.0,SSE,9.2,-,N/A,,Clear,150,2012-12-04 18:16:00
1:56 PM,59.0,52.0,78,30.16,8.0,South,8.1,-,N/A,,Clear,170,2012-12-04 18:56:00
2:56 PM,57.9,52.0,81,30.14,7.0,SSE,5.8,-,N/A,,Clear,150,2012-12-04 19:56:00
3:56 PM,55.0,51.1,86,30.14,7.0,SSE,5.8,-,N/A,,Clear,150,2012-12-04 20:56:00
4:56 PM,53.1,51.1,93,30.13,6.0,South,3.5,-,N/A,,Clear,170,2012-12-04 21:56:00
5:38 PM,53.6,51.8,94,30.11,4.0,SSE,6.9,-,N/A,,Overcast,160,2012-12-04 22:38:00
5:56 PM,53.1,52.0,96,30.12,2.0,South,6.9,-,N/A,,Overcast,170,2012-12-04 22:56:00
6:00 PM,53.6,51.8,94,30.11,1.0,South,6.9,-,N/A,,Overcast,170,2012-12-04 23:00:00
6:27 PM,53.6,51.8,94,30.10,0.2,SSE,6.9,-,N/A,Fog,Fog,160,2012-12-04 23:27:00
6:46 PM,53.6,51.8,94,30.09,0.2,SSE,4.6,-,N/A,Fog,Fog,160,2012-12-04 23:46:00
6:56 PM,53.1,52.0,96,30.10,0.2,South,6.9,-,N/A,Fog,Fog,170,2012-12-04 23:56:00
7:08 PM,53.6,51.8,94,30.08,0.2,SSE,6.9,-,N/A,Fog,Fog,160,2012-12-05 00:08:00
7:56 PM,52.0,52.0,100,30.08,0.2,SSE,4.6,-,N/A,Fog,Fog,160,2012-12-05 00:56:00
8:56 PM,52.0,51.1,97,30.06,0.2,SSE,5.8,-,N/A,Fog,Fog,160,2012-12-05 01:56:00
9:09 PM,51.8,51.8,100,30.05,0.2,SSE,4.6,-,N/A,Fog,Fog,160,2012-12-05 02:09:00
9:56 PM,52.0,51.1,97,30.04,0.2,South,5.8,-,N/A,Fog,Fog,170,2012-12-05 02:56:00
10:56 PM,51.1,50.0,96,30.01,0.5,SSE,5.8,-,N/A,Fog,Fog,150,2012-12-05 03:56:00
11:56 PM,50.0,48.0,93,29.98,0.5,Variable,3.5,-,N/A,Fog,Fog,0,2012-12-05 04:56:00